Overview Statistics Trail Chart Weather Telemetry Raw packets
 

This is the latest recevied weather packets stored in our database for station/object KC5DAQ-26. If no packets are shown the sender has not sent any weather packets the latest 10 day(s).

<< 426 427 428 429 430 431 432 >>
Time Temp. Humidity Pressure Rain* Wind** Luminosity Snow
1788036213 35.56° C 57% 1018.2 hPa 0 mm - 800 W/m² -
1788036152 35.56° C 56% 1018.2 hPa 0 mm - 805 W/m² -
1788036093 35.56° C 57% 1018.2 hPa 0 mm - 814 W/m² -
1788036032 35.56° C 56% 1018.2 hPa 0 mm - 814 W/m² -
1788035970 35.56° C 57% 1018.2 hPa 0 mm - 821 W/m² -
1788035913 35.56° C 57% 1018.2 hPa 0 mm - 842 W/m² -
1788035853 35.56° C 57% 1018.3 hPa 0 mm - 851 W/m² -
1788035792 35.56° C 55% 1018.3 hPa 0 mm - 848 W/m² -
1788035731 35.56° C 56% 1018.3 hPa 0 mm - 837 W/m² -
1788035671 35.56° C 57% 1018.3 hPa 0 mm - 833 W/m² -
1788035612 35.56° C 55% 1018.3 hPa 0 mm - 837 W/m² -
1788035551 35.56° C 55% 1018.4 hPa 0 mm - 833 W/m² -
1788035491 35.56° C 56% 1018.3 hPa 0 mm - 832 W/m² -
1788035433 35.56° C 57% 1018.4 hPa 0 mm - 853 W/m² -
1788035371 35.56° C 60% 1018.4 hPa 0 mm - 849 W/m² -
1788035312 35.56° C 56% 1018.4 hPa 0 mm - 851 W/m² -
1788035251 35.56° C 56% 1018.5 hPa 0 mm - 867 W/m² -
1788035192 35.56° C 57% 1018.4 hPa 0 mm - 867 W/m² -
1788035142 35.56° C 57% 1018.5 hPa 0 mm - 867 W/m² -
1788035072 35.56° C 58% 1018.5 hPa 0 mm - 863 W/m² -
1788035013 35.56° C 55% 1018.5 hPa 0 mm - 856 W/m² -
1788034953 35.56° C 56% 1018.5 hPa 0 mm - 856 W/m² -
1788034891 35.56° C 57% 1018.5 hPa 0 mm - 858 W/m² -
1788034832 35.56° C 57% 1018.5 hPa 0 mm - 860 W/m² -
1788034773 35.56° C 59% 1018.5 hPa 0 mm - 865 W/m² -

* Rain latest hour (hover to see other rain measurements)
** Current wind speed in m/s (hover to see current wind gust speed)